Date_and_time,latitude,longitude,wind_speed,RelWindDirFrom,WindDirFrom,air_pressure,air_temperature,relative_humidity,Temp,platform_speed_wrt_ground,air_pressure_at_mean_sea_level,platform_orientation
2019-10-16 23:50,50.6304333333333,-96.9807616666667,10.0,12.1,103,989.54,3.8,96,6.29,0.0,1017.11,347.4
2019-10-17 00:00,50.6304333333333,-96.9807633333333,10.3,12.3,99,989.32,3.9,96,6.30,0.0,1016.87,228.3
2019-10-17 00:10,50.6304316666667,-96.9807633333333,10.4,12.4,103,989.34,3.9,94,6.30,0.0,1016.89,228.3
2019-10-17 00:20,50.6304383333333,-96.9807466666667,10.3,12.2,96,989.28,4.0,97,6.30,0.0,1016.81,228.3
2019-10-17 00:30,50.630435,-96.980755,10.1,13.7,98,989.32,4.0,98,6.30,0.0,1016.86,228.3
2019-10-17 00:40,50.630435,-96.980755,11.6,13.6,112,989.20,4.0,95,6.30,0.0,1016.73,228.3
2019-10-17 00:50,50.6304366666667,-96.980755,11.1,13.1,117,989.23,3.9,94,6.30,0.0,1016.75,228.3
2019-10-17 01:00,50.630435,-96.9807566666667,11.0,13.6,123,989.25,3.8,94,6.30,0.0,1016.77,90.0
2019-10-17 01:10,50.6304366666667,-96.9807566666667,10.6,12.9,125,989.31,3.7,94,6.29,0.0,1016.84,90.0
2019-10-17 01:20,50.6304366666667,-96.9807583333333,10.6,13.6,122,989.20,3.9,94,6.29,0.0,1016.71,90.0
2019-10-17 01:30,50.6304366666667,-96.9807583333333,11.4,14.0,123,989.03,3.8,94,6.28,0.0,1016.54,90.0
2019-10-17 01:40,50.6304366666667,-96.9807583333333,11.3,14.2,121,989.06,3.9,93,6.28,0.0,1016.56,90.0
2019-10-17 01:50,50.6304366666667,-96.9807583333333,11.6,15.2,126,989.00,3.7,92,6.28,0.0,1016.51,90.0
2019-10-17 02:00,50.63045,-96.98076,11.9,15.3,126,989.07,3.7,92,6.27,0.0,1016.58,360.0
2019-10-17 02:10,50.63044,-96.980765,11.0,14.4,127,989.25,3.6,92,6.26,0.0,1016.77,360.0
2019-10-17 02:20,50.6304433333333,-96.9807633333333,10.6,13.4,121,989.24,4.0,94,6.25,0.0,1016.74,360.0
2019-10-17 02:30,50.6304416666667,-96.98076,12.0,15.0,120,989.18,4.0,93,6.25,0.0,1016.67,360.0
2019-10-17 02:40,50.6304416666667,-96.98076,11.9,14.8,117,989.08,4.0,94,6.26,0.0,1016.57,360.0
2019-10-17 02:50,50.6304416666667,-96.9807616666667,12.3,14.2,115,989.09,4.0,95,6.25,0.0,1016.59,360.0
2019-10-17 03:00,50.6304416666667,-96.9807616666667,12.2,14.0,115,989.09,4.0,94,6.25,0.0,1016.59,41.3
2019-10-17 03:10,50.6304383333333,-96.9807483333333,12.3,14.7,115,989.04,4.1,93,6.25,0.0,1016.53,41.3
2019-10-17 03:20,50.630435,-96.98074,12.6,14.9,119,988.91,4.0,93,6.25,0.0,1016.41,41.3
2019-10-17 03:30,50.630455,-96.98078,11.3,14.6,120,988.77,4.0,94,6.25,0.0,1016.26,41.3
2019-10-17 03:40,50.63045,-96.9807616666667,12.2,14.5,116,988.71,4.2,93,6.24,0.0,1016.19,41.3
2019-10-17 03:50,50.6304416666667,-96.980755,12.6,14.6,117,988.61,4.2,93,6.24,0.0,1016.09,41.3
2019-10-17 04:00,50.63044,-96.9807533333333,12.1,14.9,117,988.57,4.2,94,6.25,0.0,1016.05,12.6
2019-10-17 04:10,50.6304416666667,-96.9807566666667,13.2,15.7,119,988.33,4.2,93,6.25,0.0,1015.78,12.6
2019-10-17 04:20,50.6304433333333,-96.9807566666667,14.0,16.6,119,988.16,4.3,93,6.25,0.0,1015.61,12.6
2019-10-17 04:30,50.6304433333333,-96.9807566666667,13.7,16.7,120,988.18,4.3,92,6.25,0.0,1015.63,12.6
2019-10-17 04:40,50.630445,-96.980755,12.5,15.5,123,988.22,4.2,93,6.25,0.0,1015.68,12.6
2019-10-17 04:50,50.6304466666667,-96.9807533333333,12.2,15.2,124,988.27,4.1,93,6.24,0.0,1015.73,12.6
2019-10-17 05:00,50.6304466666667,-96.9807733333333,10.9,14.6,125,988.33,4.1,93,6.23,0.0,1015.79,234.7
2019-10-17 05:10,50.6304366666667,-96.98076,11.5,15.2,124,988.21,4.2,92,6.19,0.0,1015.67,234.7
2019-10-17 05:20,50.6304416666667,-96.9807633333333,11.8,15.0,128,988.15,4.0,92,6.16,0.0,1015.61,234.7
2019-10-17 05:30,50.63044,-96.98076,12.5,17.2,130,988.13,4.0,92,6.15,0.0,1015.58,234.7
2019-10-17 05:40,50.63044,-96.9807616666667,12.1,15.0,131,988.19,3.9,92,6.15,0.0,1015.65,234.7
2019-10-17 05:50,50.6304383333333,-96.9807583333333,11.9,15.1,130,988.11,4.0,92,6.14,0.0,1015.56,234.7
2019-10-17 06:00,50.630445,-96.980785,12.4,15.4,131,988.07,4.0,91,6.11,0.0,1015.52,270.0
2019-10-17 06:10,50.6304383333333,-96.9807583333333,12.2,14.9,138,988.15,3.9,90,6.08,0.0,1015.60,270.0
2019-10-17 06:20,50.6304333333333,-96.9807583333333,12.6,15.0,137,988.01,3.9,91,6.08,0.0,1015.46,270.0
2019-10-17 06:30,50.6304316666667,-96.980755,12.9,15.8,139,987.88,3.9,91,6.05,0.0,1015.33,270.0
2019-10-17 06:40,50.6304316666667,-96.9807566666667,11.5,13.6,142,987.95,3.8,92,6.03,0.0,1015.41,270.0
2019-10-17 06:50,50.6304333333333,-96.9807583333333,11.5,13.9,134,987.89,3.8,93,6.00,0.0,1015.35,270.0
2019-10-17 07:00,50.6304333333333,-96.9807583333333,11.0,13.2,141,987.86,3.7,94,5.99,0.0,1015.32,194.5
2019-10-17 07:10,50.6304333333333,-96.9807583333333,10.6,12.9,145,987.88,3.7,93,5.98,0.0,1015.35,194.5
2019-10-17 07:20,50.63044,-96.9807566666667,11.9,14.1,139,987.75,3.7,93,5.97,0.0,1015.22,194.5
2019-10-17 07:30,50.63044,-96.98076,11.3,13.6,137,987.72,3.6,94,5.97,0.0,1015.20,194.5
2019-10-17 07:40,50.6304416666667,-96.980755,10.6,13.6,143,987.75,3.6,95,5.96,0.0,1015.22,194.5
2019-10-17 07:50,50.6304383333333,-96.9807566666667,9.8,11.8,142,987.82,3.6,94,5.95,0.0,1015.29,194.5
2019-10-17 08:00,50.630415,-96.9807433333333,9.6,12.4,143,987.76,3.7,95,5.94,0.0,1015.24,156.3
2019-10-17 08:10,50.630425,-96.98075,9.5,11.6,143,987.75,3.7,95,5.93,0.0,1015.22,156.3
2019-10-17 08:20,50.6304266666667,-96.9807533333333,11.4,13.4,137,987.57,3.8,94,5.93,0.0,1015.04,156.3
2019-10-17 08:30,50.6304266666667,-96.980755,11.1,13.8,134,987.45,3.7,94,5.92,0.0,1014.91,156.3
2019-10-17 08:40,50.6304283333333,-96.9807583333333,10.9,13.2,134,987.39,3.7,96,5.91,0.0,1014.86,156.3
2019-10-17 08:50,50.63043,-96.9807583333333,11.6,13.7,139,987.25,3.7,96,5.90,0.0,1014.72,156.3
2019-10-17 09:00,50.6304316666667,-96.9807566666667,11.9,14.3,139,987.06,3.7,96,5.89,0.0,1014.53,119.2
2019-10-17 09:10,50.6304316666667,-96.9807583333333,12.5,14.7,136,986.92,3.7,96,5.89,0.0,1014.38,119.2
2019-10-17 09:20,50.6304333333333,-96.9807583333333,12.8,14.9,134,986.64,3.7,96,5.89,0.0,1014.10,119.2
2019-10-17 09:30,50.6304333333333,-96.9807583333333,13.0,15.6,136,986.58,3.7,96,5.89,0.0,1014.03,119.2
2019-10-17 09:40,50.6304333333333,-96.9807566666667,12.6,15.0,136,986.60,3.7,98,5.88,0.0,1014.06,119.2
2019-10-17 09:50,50.630435,-96.9807583333333,13.0,15.0,140,986.70,3.7,98,5.87,0.0,1014.16,119.2
2019-10-17 10:00,50.6304416666667,-96.9807583333333,12.5,15.6,144,986.66,3.7,98,5.87,0.0,1014.12,38.0
2019-10-17 10:10,50.6304333333333,-96.98076,12.7,15.4,143,986.53,3.6,98,5.86,0.0,1013.98,38.0
2019-10-17 10:20,50.6304333333333,-96.980745,12.5,15.3,144,986.45,3.5,98,5.85,0.0,1013.90,38.0
2019-10-17 10:30,50.63043,-96.98074,12.2,14.6,142,986.43,3.4,99,5.85,0.0,1013.89,38.0
2019-10-17 10:40,50.63043,-96.9807433333333,12.0,14.1,139,986.53,3.4,99,5.84,0.0,1014.00,38.0
2019-10-17 10:50,50.6304316666667,-96.9807483333333,12.0,14.0,140,986.54,3.4,99,5.84,0.0,1014.01,38.0
2019-10-17 11:00,50.6304333333333,-96.9807483333333,11.9,14.2,135,986.36,3.4,99,5.84,0.0,1013.82,360.0
2019-10-17 11:10,50.6304333333333,-96.98075,11.1,13.1,134,986.42,3.5,99,5.84,0.0,1013.88,360.0
2019-10-17 11:20,50.6304333333333,-96.9807516666667,11.2,13.6,133,986.48,3.5,99,5.82,0.0,1013.93,360.0
2019-10-17 11:30,50.630435,-96.9807516666667,11.7,14.7,128,986.36,3.7,99,5.82,0.0,1013.80,360.0
2019-10-17 11:40,50.6304333333333,-96.9807516666667,11.7,15.1,129,986.34,3.7,99,5.82,0.0,1013.79,360.0
2019-10-17 11:50,50.6304333333333,-96.9807533333333,11.3,14.5,129,986.42,3.6,99,5.82,0.0,1013.87,360.0
2019-10-17 12:00,50.63042,-96.9807716666667,11.7,14.9,128,986.40,3.6,99,5.81,0.0,1013.85,216.6
2019-10-17 12:10,50.6304233333333,-96.98076,11.6,15.6,125,986.31,3.8,99,5.81,0.0,1013.76,216.6
2019-10-17 12:20,50.630425,-96.98076,12.5,16.4,126,986.15,3.7,99,5.80,0.0,1013.61,216.6
2019-10-17 12:30,50.630425,-96.9807616666667,13.4,16.3,131,985.98,3.5,99,5.80,0.0,1013.44,216.6
2019-10-17 12:40,50.6304183333333,-96.9807733333333,14.1,17.0,135,985.99,3.5,99,5.80,0.0,1013.45,216.6
2019-10-17 12:50,50.6304366666667,-96.9807716666667,13.3,16.6,140,986.23,3.5,99,5.78,0.0,1013.70,216.6
2019-10-17 13:00,50.630435,-96.9807766666667,14.6,17.7,136,986.16,3.4,99,5.78,0.0,1013.62,240.8
2019-10-17 13:10,50.6304366666667,-96.9807766666667,15.2,17.4,139,986.08,3.4,99,5.78,0.0,1013.54,240.8
2019-10-17 13:20,50.6304383333333,-96.980775,16.1,18.6,138,985.94,3.4,99,5.77,0.0,1013.39,240.8
2019-10-17 13:30,50.6304383333333,-96.9807733333333,16.4,19.8,140,985.83,3.5,99,5.76,0.0,1013.27,240.8
2019-10-17 13:40,50.6304366666667,-96.9807733333333,15.7,19.6,140,985.83,3.4,99,5.75,0.0,1013.28,240.8
2019-10-17 13:50,50.6304233333333,-96.9807716666667,16.5,19.4,137,985.73,3.5,99,5.74,0.0,1013.17,240.8
2019-10-17 14:00,50.63043,-96.980775,15.4,18.0,137,985.78,3.5,99,5.74,0.0,1013.21,246.4
2019-10-17 14:10,50.630415,-96.9807433333333,15.0,17.0,138,985.87,3.5,99,5.73,0.0,1013.31,246.4
2019-10-17 14:20,50.6304233333333,-96.980755,15.0,18.1,135,985.72,3.7,99,5.73,0.0,1013.16,246.4
2019-10-17 14:30,50.6304266666667,-96.9807566666667,14.9,17.8,136,985.73,3.7,99,5.73,0.0,1013.17,246.4
2019-10-17 14:40,50.630425,-96.9807583333333,14.9,17.8,133,985.52,3.8,98,5.72,0.0,1012.95,246.4
2019-10-17 14:50,50.6304266666667,-96.98076,14.8,17.7,133,985.60,3.7,98,5.72,0.0,1013.03,246.4
2019-10-17 15:00,50.6304266666667,-96.9807633333333,14.9,17.9,136,985.62,3.8,98,5.72,0.0,1013.06,48.3
2019-10-17 15:10,50.6304066666667,-96.98079,15.5,18.4,135,985.57,3.8,98,5.72,0.0,1013.01,48.3
2019-10-17 15:20,50.6304283333333,-96.9807666666667,15.8,18.3,134,985.41,3.8,97,5.72,0.0,1012.84,48.3
2019-10-17 15:30,50.630405,-96.9807816666667,15.6,19.7,132,985.35,3.9,97,5.73,0.0,1012.77,48.3
2019-10-17 15:40,50.6304166666667,-96.98078,15.5,19.1,133,985.23,4.0,97,5.73,0.0,1012.64,48.3
2019-10-17 15:50,50.63042,-96.98077,15.4,19.3,132,985.13,4.1,96,5.73,0.0,1012.53,48.3
2019-10-17 16:00,50.6304233333333,-96.9807716666667,14.8,17.2,138,985.31,4.1,96,5.74,0.0,1012.72,142.0
2019-10-17 16:10,50.6304233333333,-96.9807716666667,12.1,16.3,143,985.58,4.3,96,5.74,0.0,1012.98,142.0
2019-10-17 16:20,50.6304233333333,-96.9807716666667,12.5,15.6,144,985.60,4.6,95,5.74,0.0,1012.98,142.0
2019-10-17 16:30,50.6304233333333,-96.9807716666667,12.9,16.3,139,985.40,4.7,94,5.74,0.0,1012.77,142.0
2019-10-17 16:40,50.630425,-96.9807716666667,14.5,16.4,137,985.18,4.8,93,5.75,0.0,1012.54,142.0
2019-10-17 16:50,50.630425,-96.9807716666667,15.1,18.7,136,985.04,5.1,90,5.76,0.0,1012.38,142.0
2019-10-17 17:00,50.6304266666667,-96.9807533333333,15.3,18.4,137,985.10,5.4,88,5.76,0.0,1012.43,90.0
2019-10-17 17:10,50.630425,-96.980755,16.7,19.3,138,985.09,5.6,86,5.77,0.0,1012.40,90.0
2019-10-17 17:20,50.6304283333333,-96.9807566666667,17.6,20.9,137,984.91,5.7,84,5.78,0.0,1012.21,90.0
2019-10-17 17:30,50.63043,-96.9807566666667,16.7,20.0,131,984.66,6.0,84,5.79,0.0,1011.93,90.0
2019-10-17 17:40,50.6304283333333,-96.980755,15.1,18.5,130,984.49,6.3,84,5.80,0.0,1011.74,90.0
2019-10-17 17:50,50.6304266666667,-96.9807566666667,14.3,19.1,128,984.34,6.7,83,5.80,0.0,1011.56,90.0
2019-10-17 18:00,50.6304266666667,-96.9807566666667,14.0,19.4,125,984.15,7.0,83,5.81,0.0,1011.34,90.0
2019-10-17 18:10,50.6304266666667,-96.9807583333333,14.2,18.4,131,984.11,6.9,82,5.81,0.0,1011.28,90.0
2019-10-17 18:20,50.6304266666667,-96.9807583333333,14.4,19.2,128,983.96,7.2,81,5.82,0.0,1011.12,90.0
2019-10-17 18:30,50.6304233333333,-96.9807516666667,13.6,16.6,118,983.79,7.7,84,5.84,0.0,1010.91,90.0
2019-10-17 18:40,50.63042,-96.98077,12.8,16.0,120,983.79,7.6,82,5.85,0.0,1010.90,90.0
2019-10-17 18:50,50.6304216666667,-96.98077,12.4,16.5,123,983.76,7.8,78,5.87,0.0,1010.84,90.0
2019-10-17 19:00,50.6304216666667,-96.9807683333333,12.4,16.4,127,983.56,7.9,77,5.88,0.0,1010.63,167.4
2019-10-17 19:10,50.6304216666667,-96.980765,11.3,14.9,124,983.42,7.7,79,5.89,0.0,1010.48,167.4
2019-10-17 19:20,50.6304233333333,-96.9807633333333,12.0,15.5,129,983.29,7.5,79,5.90,0.0,1010.35,167.4
2019-10-17 19:30,50.6304266666667,-96.9807633333333,12.1,15.0,130,983.18,7.4,79,5.92,0.0,1010.22,167.4
2019-10-17 19:40,50.6304116666667,-96.9807683333333,11.3,14.4,128,983.09,7.6,79,5.92,0.0,1010.10,167.4
2019-10-17 19:50,50.6304216666667,-96.9807566666667,10.6,13.6,130,982.94,7.6,80,5.92,0.0,1009.94,167.4
2019-10-17 20:00,50.6304233333333,-96.98076,11.8,15.0,132,982.78,7.7,79,5.93,0.0,1009.77,270.0
2019-10-17 20:10,50.6304316666667,-96.9807583333333,11.7,14.8,129,982.57,8.1,75,5.93,0.0,1009.52,270.0
2019-10-17 20:20,50.6304333333333,-96.9807583333333,12.3,14.1,130,982.42,8.3,74,5.94,0.0,1009.33,270.0
2019-10-17 20:30,50.6304316666667,-96.9807633333333,12.9,15.0,132,982.20,8.4,73,5.95,0.0,1009.10,270.0
2019-10-17 20:40,50.63043,-96.980765,13.1,15.6,131,981.98,8.6,71,5.96,0.0,1008.86,270.0
2019-10-17 20:50,50.63043,-96.980765,12.0,15.3,128,981.81,8.8,71,5.97,0.0,1008.67,270.0
2019-10-17 21:00,50.63043,-96.980765,12.3,16.0,127,981.64,8.9,70,5.97,0.0,1008.50,270.0
2019-10-17 21:10,50.63043,-96.980765,11.2,16.3,123,981.57,9.0,70,5.99,0.0,1008.44,270.0
2019-10-17 21:20,50.63043,-96.980765,11.8,14.9,122,981.43,9.0,71,6.00,0.0,1008.30,270.0
2019-10-17 21:30,50.6304283333333,-96.9807633333333,12.2,15.5,120,981.21,9.0,72,6.01,0.0,1008.06,270.0
2019-10-17 21:40,50.6304416666667,-96.9807883333333,11.2,14.2,122,981.13,8.8,73,6.01,0.0,1007.99,270.0
2019-10-17 21:50,50.63044,-96.980775,11.9,15.4,123,981.04,9.2,69,6.02,0.0,1007.87,270.0
2019-10-17 22:00,50.63044,-96.98077,12.8,16.9,120,980.96,9.5,69,6.06,0.0,1007.76,360.0
2019-10-17 22:10,50.6304383333333,-96.9807666666667,13.3,15.8,119,980.84,9.9,68,6.09,0.0,1007.60,360.0
2019-10-17 22:20,50.6304366666667,-96.9807666666667,12.6,15.4,119,980.68,9.5,69,6.11,0.0,1007.45,360.0
2019-10-17 22:30,50.6304166666667,-96.9807583333333,12.5,14.9,120,980.59,9.1,72,6.12,0.0,1007.37,360.0
2019-10-17 22:40,50.6304266666667,-96.9807616666667,11.8,15.3,121,980.61,9.2,69,6.13,0.0,1007.38,360.0
2019-10-17 22:50,50.63043,-96.9807616666667,12.7,16.3,121,980.54,9.5,67,6.14,0.0,1007.29,360.0
2019-10-17 23:00,50.63043,-96.9807616666667,12.6,15.7,121,980.58,9.5,68,6.14,0.0,1007.32,90.0
2019-10-17 23:10,50.6304283333333,-96.98076,12.7,17.3,123,980.62,9.4,67,6.14,0.0,1007.37,90.0
2019-10-17 23:20,50.6304266666667,-96.98076,12.6,16.3,122,980.54,9.4,67,6.14,0.0,1007.29,90.0
2019-10-17 23:30,50.6304283333333,-96.98076,12.3,16.0,121,980.49,9.3,68,6.14,0.0,1007.25,90.0
